Terug naar catalogus

NIMBUS 2 DEB

ActiefLEO
NORAD 40642·DEBRIS·🇺🇸 United States

Gelanceerd May 15, 1966 vanaf Vandenberg Space Force Base

Loading…

Volgende Passages (komende 24 uur)

TLE

VersSource: Space-Track

Epoch: Sep 12, 2026, 17:13 UTC

1 40642U 66040BF  26255.71746893  .00003375  00000-0  44693-2 0  9993
2 40642 100.3137 174.4821 0035235 198.9748 161.0080 13.61364324557336

Volg NIMBUS 2 DEB in realtime met AllMySat

Download on the App Store